Regional Weather Roundup
Issued by NWS

Home | Current Version | Previous Version | Text Only | Print | Product List | Glossary On
Versions: 1 2 3 4 5 6 7 8 9 10 11 12 13 14 15 16 17 18 19 20 21 22 23 24 25 26 27 28 29 30 31 32 33 34 35 36 37 38 39 40 41 42 43 44 45 46 47 48 49 50
000
ASPQ40 PGUM 031714
RWRPQ
WEATHER ROUNDUP FOR THE MARIANAS AND MICRONESIA
NATIONAL WEATHER SERVICE TIYAN GU
300 AM CHST SAT JUL 04 2015

GUZ001>004-031800-
MARIANA ISLANDS-

CITY           SKY/WX    TMP DP  RH WIND       PRES   REMARKS
GUAM AIRPORT   CLEAR     81  77  89 N13       29.57F
ANDERSEN AFB   MOCLDY    79  75  89 N18G26    29.57F
ROTA AIRPORT   NOT AVBL
TINIAN AP      NOT AVBL
SAIPAN AP      PTCLDY    82  77  83 NE25G32   29.58F HX  91

$$

PMZ161-031800-
REPUBLIC OF PALAU-

CITY           SKY/WX    TMP DP  RH WIND       PRES   REMARKS
KOROR AP       CLOUDY    81  73  78 W12       29.78F
KOROR WSO      CLOUDY    82  75  78 W14       29.78F

$$

PMZ171>174-031800-
FEDERATED STATES OF MICRONESIA-

CITY           SKY/WX    TMP DP  RH WIND       PRES   REMARKS
YAP AIRPORT    LGT RAIN  79  75  89 W9        29.76S
CHUUK AP       NOT AVBL
POHNPEI AP     NOT AVBL
POHNPEI WSO    LGT RAIN  73  73 100 SW5       29.81S
KOSRAE AP      NOT AVBL

$$

PMZ181-031800-
REPUBLIC OF THE MARSHALL ISLANDS-

CITY           SKY/WX    TMP DP  RH WIND       PRES   REMARKS
KWAJALEIN AP   PTCLDY    82  73  74 NW13G22   29.70S
MAJURO AP      NOT AVBL
MAJURO WSO     MOCLDY    82  77  83 W15       29.64S HX  91

$$




USA.gov is the U.S. government's official web portal to all federal, state and local government web resources and services.